STARLINK-4523 (53389 NORAD) Tracking and Keplerian Element Data

This shows tracking and keplerian element data for the satellite.

Feedback or suggestion? Click here.




ElementValue
Catalog53389
NameSTARLINK-4523
Epoch Orbit130
Epoch Day269.91667824
Epoch Year2022
RAAN19.4625
Inclination53.2171
Eccentricity0.0002036
Argument of Perigee42.9254
Mean Anonmoly68.8085
Mean Motion15.0887957
Decay Rate-0.00063384
L11 53389U 22097B 22269.91667824 -.00063384 00000+0 -39953-2 0 9998
L22 53389 53.2171 19.4625 0002036 42.9254 68.8085 15.08879570 1302

Live tracking and technical data element details for STARLINK-4523 (NORAD 53389). STARLINK-4523 can be tracked NOW for your location showing map with azimuth and elevation plus other details from your city location.

Track the satellite on the map from your city or location and see movement details for azimuth, elevation, latitude, longitude, range, height, and movement on the map or in text.







IsCatalogInMostPopularTable: catalog: 53389, numindb: 2
Update: records affected: 1



GetName: 53389 STARLINK-4523

Hit Count: updated at: Wed, 28 Sep 2022 22:06:47 GMT